Home   Weather   Missoula   Past weeks

Flag for USA Past Weather in Missoula, Montana, USA — Yesterday and Last 2 Weeks

Now
45 °F

Passing clouds.


Feels Like: 45 °F
Forecast: 37 / 54 °F
Wind: No wind

Location: Missoula International Airport

Current Time: Apr 30, 2017 at 10:25:24 pm

Latest Report: Apr 30, 2017 at 9:53 pm


Visibility: 10 mi

Pressure: 30.10 "Hg (26.74 "Hg at 971m altitude)

Humidity: 65%

Dew Point: 34 °F

Location of MissoulaLocation

Past Weather in Missoula — Graph

°F

Missoula Temperature Yesterday

Maximum temperature yesterday: 57 °F (at 4:53 pm)
Minimum temperature yesterday: 34 °F (at 1:53 am)
Average temperature yesterday: 45 °F

High & Low Weather Summary for the Past Weeks

 TemperatureHumidityPressure
High64 °F (Apr 22, 3:53 pm)100% (Apr 21, 1:53 am)30.35 "Hg (Apr 21, 1:53 am)
Low27 °F (Apr 16, 5:53 am)24% (Apr 22, 4:53 pm)29.61 "Hg (Apr 24, 4:53 pm)
Average45 °F69%29.99 "Hg
* Reported Apr 15 8:53 pm — Apr 30 8:53 pm, Missoula, Weather by CustomWeather, © 2017

Note: Actual official high and low records may vary slightly from our data, if they occured in-between our weather recording intervals... More about our weather records

Advertising

Missoula Weather History for the Previous 24 Hours

Scroll right to see more
 ConditionsComfort  
Time TempWeatherWind HumidityBarometerVisibility
8:53 pm
Sun, Apr 30
48 °FMostly cloudy.14 mph56%30.09 "Hg10 mi
7:53 pm50 °FMore clouds than sun.16 mph54%30.06 "Hg10 mi
6:53 pm51 °FPartly sunny.18 mph52%30.05 "Hg10 mi
5:53 pm54 °FOvercast.14 mph41%30.02 "Hg10 mi
4:53 pm55 °FPartly sunny.20 mph37%30.01 "Hg10 mi
3:53 pm56 °FPartly sunny.25 mph46%29.98 "Hg10 mi
2:53 pm55 °FBroken clouds.15 mph49%29.99 "Hg10 mi
1:53 pm54 °FMostly cloudy.16 mph55%30.00 "Hg10 mi
12:53 pm55 °FCloudy.18 mph51%30.02 "Hg10 mi
11:53 am51 °FMore clouds than sun.No wind59%30.04 "Hg10 mi
10:53 am49 °FOvercast.8 mph64%30.05 "Hg10 mi
9:53 am50 °FMostly cloudy.6 mph59%30.03 "Hg10 mi
8:53 am49 °FOvercast.5 mph59%30.04 "Hg10 mi
7:53 am48 °FLight rain. Mostly cloudy.3 mph66%30.04 "Hg10 mi
6:53 am47 °FMostly cloudy.3 mph66%30.03 "Hg10 mi
5:53 am45 °FMostly cloudy.No wind71%30.03 "Hg10 mi
4:53 am46 °FOvercast.No wind68%30.04 "Hg10 mi
3:53 am48 °FMostly cloudy.5 mph56%30.05 "Hg10 mi
2:53 am49 °FLight rain. Overcast.12 mph55%30.06 "Hg10 mi
1:53 am48 °FMostly cloudy.N/A56%30.07 "Hg10 mi
12:53 am47 °FOvercast.3 mph59%30.08 "Hg10 mi
11:53 pm
Sat, Apr 29
47 °FOvercast.5 mph59%30.10 "Hg10 mi
10:53 pm45 °FOvercast.3 mph65%30.12 "Hg10 mi
Weather by CustomWeather, © 2017

See weather overviewHow to use our weather pages